TimeAST,TemperatureF,Dew PointF,Humidity,Sea Level PressureIn,VisibilityMPH,Wind Direction,Wind SpeedMPH,Gust SpeedMPH,PrecipitationIn,Events,Conditions,WindDirDegrees,DateUTC
1:00 AM,78.8,75.2,89,29.77,-9999.0,North,-9999.0,-,N/A,,Unknown,0,2011-11-28 05:00:00
4:00 AM,77.0,75.2,94,29.74,-9999.0,Calm,Calm,-,N/A,,Unknown,0,2011-11-28 08:00:00
6:00 AM,77.0,75.2,94,29.74,-9999.0,Calm,Calm,-,N/A,,Unknown,0,2011-11-28 10:00:00
8:00 AM,85,80,82,,,Calm,Calm,,,,Clear,10,2011-11-28 12:00:00
8:00 AM,86.0,80.6,84,29.77,-9999.0,North,-9999.0,-,N/A,,Unknown,0,2011-11-28 12:00:00
9:00 AM,87.8,78.8,75,29.80,6.2,NNE,2.3,-,N/A,,Scattered Clouds,30,2011-11-28 13:00:00
10:00 AM,84.2,77.0,79,29.80,6.2,East,1.2,-,N/A,,Scattered Clouds,90,2011-11-28 14:00:00
11:00 AM,80,77,89,29.83,19,ENE,4.6,,,Rain,Light Rain Showers,70,2011-11-28 15:00:00
11:00 AM,80.6,77.0,89,29.80,6.2,ENE,4.6,-,N/A,,Scattered Clouds,70,2011-11-28 15:00:00
12:00 PM,86.0,77.0,74,29.80,6.2,ENE,4.6,-,N/A,,Scattered Clouds,70,2011-11-28 16:00:00
1:00 PM,87.8,77.0,70,29.77,6.2,Calm,Calm,-,N/A,,Scattered Clouds,0,2011-11-28 17:00:00
2:00 PM,87,77,66,29.75,25,,1.2,,,,Partly Cloudy,,2011-11-28 18:00:00
2:00 PM,87.8,77.0,70,29.74,6.2,Variable,1.2,-,N/A,,Scattered Clouds,0,2011-11-28 18:00:00
3:00 PM,84.2,77.0,79,29.71,6.2,NE,3.5,-,N/A,,Mostly Cloudy,50,2011-11-28 19:00:00
4:00 PM,80.6,77.0,89,29.71,6.2,NNE,8.1,-,N/A,Rain,Heavy Rain,20,2011-11-28 20:00:00
5:00 PM,82,78,84,29.72,25,,3.5,,,Rain,Light Rain Showers,,2011-11-28 21:00:00
5:00 PM,82.4,78.8,89,29.71,6.2,Variable,3.5,-,N/A,,Mostly Cloudy,0,2011-11-28 21:00:00
6:00 PM,80.6,77.0,89,29.71,6.2,Variable,2.3,-,N/A,,Partly Cloudy,0,2011-11-28 22:00:00
7:00 PM,80.6,77.0,89,29.74,-9999.0,North,-9999.0,-,N/A,,Unknown,0,2011-11-28 23:00:00
8:00 PM,80,77,87,29.78,25,Calm,Calm,,,,Scattered Clouds,,2011-11-29 00:00:00
8:00 PM,80.6,77.0,89,29.77,6.2,Calm,Calm,-,N/A,,Partly Cloudy,0,2011-11-29 00:00:00
9:00 PM,80.6,77.0,89,29.80,6.2,Calm,Calm,-,N/A,,Partly Cloudy,0,2011-11-29 01:00:00
10:00 PM,78.8,77.0,94,29.80,-9999.0,North,-9999.0,-,N/A,,Unknown,0,2011-11-29 02:00:00
11:00 PM,79,76,87,,6,Calm,Calm,,,,Clear,,2011-11-29 03:00:00
11:00 PM,78.8,75.2,89,29.80,-9999.0,North,-9999.0,-,N/A,,Unknown,0,2011-11-29 03:00:00